Air Resources Laboratory banner image
Air Resources Laboratory web site National Oceanic and Atmospheric Administration (NOAA)

mo roundup


Office: LSX

ASUS43 KLSX 170707
RWRMO

WEATHER SUMMARY FOR MISSOURI
NATIONAL WEATHER SERVICE SPRINGFIELD MO
200 AM CDT WED AUG 17 2022

NOTE: "FAIR" INDICATES FEW OR NO CLOUDS BELOW 12,000 FEET WITH NO
       SIGNIFICANT WEATHER AND/OR OBSTRUCTIONS TO VISIBILITY.
       CURRENT SKY AND/OR WEATHER CONDITIONS ARE NOT AVAILABLE FOR
       CHILLICOTHE AND FARMINGTON.

MOZ001>031-035>038-043-044-053-054-170800-
...NORTHERN AND WESTERN MISSOURI...

CITY           SKY/WX    TMP DP  RH WIND       PRES   REMARKS
KANSAS CTY INT NOT AVBL
CHILLICOTHE      N/A     67  63  87 NE3       30.10S

$$
MOZ066>068-077>081-088>096-101>105-170800-
...SOUTHWEST MISSOURI...

CITY           SKY/WX    TMP DP  RH WIND       PRES   REMARKS
SPRINGFIELD    NOT AVBL

$$
MOZ032>034-039>042-045>050-055>058-069>072-170800-
...CENTRAL MISSOURI...

CITY           SKY/WX    TMP DP  RH WIND       PRES   REMARKS
COLUMBIA       NOT AVBL
WHITEMAN AFB   PTCLDY    66  65  96 NE7       30.02F

$$
MOZ051-052-059>065-170800-
...EAST CENTRAL MISSOURI...

CITY           SKY/WX    TMP DP  RH WIND       PRES   REMARKS
ST LOUIS INTL  PTCLDY    70  63  78 NE6       30.06S
SPIRIT OF STL  PTCLDY    63  63 100 CALM      30.04S FOG

$$
MOZ072>076-082>087-097>100-106>115-170800-
...SOUTH CENTRAL AND SOUTHEAST MISSOURI...

CITY           SKY/WX    TMP DP  RH WIND       PRES   REMARKS
CAPE GIRARDEAU NOT AVBL

$$




Office: EAX ASUS43 KEAX 170705 RWREAX WEATHER ROUNDUP FOR EASTERN KANSAS AND NORTHWEST MISSOURI NATIONAL WEATHER SERVICE KANSAS CITY/PLEASANT HILL MO 200 AM CDT WED AUG 17 2022 KSZ040-057-103>105-MOZ028-029-037-043-170800- ...KANSAS CITY METROPOLITAN AREA... CITY SKY/WX TMP DP RH WIND PRES REMARKS K.C. INTL NOT AVBL K.C. DOWNTOWN NOT AVBL LEES SUMMIT NOT AVBL OLATHE - IXD NOT AVBL OLATHE - OJC NOT AVBL $$ MOZ001>008-011>017-020>025-030>033-038>040-044>046-053-054-170800- ...NORTHERN AND CENTRAL MISSOURI... CITY SKY/WX TMP DP RH WIND PRES REMARKS ST. JOSEPH NOT AVBL WHITEMAN AFB PTCLDY 66 65 96 NE7 30.02F CLINTON CLOUDY 66 66 100 CALM 30.05S SEDALIA NOT AVBL CHILLICOTHE N/A 67 63 87 NE3 30.10S MOBERLY PTCLDY 63 61 94 CALM 30.09S FOG KIRKSVILLE NOT AVBL $$ MOZ041-047>049-056>058-063>065-088>090-097-170800- ...EASTERN AND SOUTHERN MISSOURI... CITY SKY/WX TMP DP RH WIND PRES REMARKS ST. LOUIS INTL PTCLDY 70 63 78 NE6 30.06S SPIRIT OF STL PTCLDY 63 63 100 CALM 30.04S FOG SIKESTON MOCLDY 68 68 100 CALM 30.01F FOG $$ IAZ060-094-KSZ022-034>040-054-083-096-NEZ052-066-093-170800- ...KANSAS...SOUTHEAST NEBRASKA AND IOWA... CITY SKY/WX TMP DP RH WIND PRES REMARKS TOPEKA NOT AVBL OMAHA CLEAR 64 62 93 NW6 30.13 $$ ASUS43 KEAX 170710 RWREAX WEATHER ROUNDUP FOR EASTERN KANSAS AND NORTHWEST MISSOURI NATIONAL WEATHER SERVICE KANSAS CITY/PLEASANT HILL MO 200 AM CDT WED AUG 17 2022 KSZ040-057-103>105-MOZ028-029-037-043-170800- ...KANSAS CITY METROPOLITAN AREA... CITY SKY/WX TMP DP RH WIND PRES REMARKS K.C. INTL NOT AVBL K.C. DOWNTOWN NOT AVBL LEES SUMMIT NOT AVBL OLATHE - IXD NOT AVBL OLATHE - OJC NOT AVBL $$ MOZ001>008-011>017-020>025-030>033-038>040-044>046-053-054-170800- ...NORTHERN AND CENTRAL MISSOURI... CITY SKY/WX TMP DP RH WIND PRES REMARKS ST. JOSEPH NOT AVBL WHITEMAN AFB PTCLDY 66 65 96 NE7 30.02F CLINTON CLOUDY 66 66 100 CALM 30.05S SEDALIA NOT AVBL CHILLICOTHE N/A 67 63 87 NE3 30.10S MOBERLY PTCLDY 63 61 94 CALM 30.09S FOG KIRKSVILLE NOT AVBL $$ MOZ041-047>049-056>058-063>065-088>090-097-170800- ...EASTERN AND SOUTHERN MISSOURI... CITY SKY/WX TMP DP RH WIND PRES REMARKS ST. LOUIS INTL PTCLDY 70 63 78 NE6 30.06S SPIRIT OF STL PTCLDY 63 63 100 CALM 30.04S FOG SIKESTON MOCLDY 68 68 100 CALM 30.01F FOG $$ IAZ060-094-KSZ022-034>040-054-083-096-NEZ052-066-093-170800- ...KANSAS...SOUTHEAST NEBRASKA AND IOWA... CITY SKY/WX TMP DP RH WIND PRES REMARKS TOPEKA NOT AVBL OMAHA CLEAR 64 62 93 NW6 30.13 $$ ASUS43 KEAX 170715 RWREAX WEATHER ROUNDUP FOR EASTERN KANSAS AND NORTHWEST MISSOURI NATIONAL WEATHER SERVICE KANSAS CITY/PLEASANT HILL MO 200 AM CDT WED AUG 17 2022 KSZ040-057-103>105-MOZ028-029-037-043-170800- ...KANSAS CITY METROPOLITAN AREA... CITY SKY/WX TMP DP RH WIND PRES REMARKS K.C. INTL NOT AVBL K.C. DOWNTOWN NOT AVBL LEES SUMMIT NOT AVBL OLATHE - IXD NOT AVBL OLATHE - OJC NOT AVBL $$ MOZ001>008-011>017-020>025-030>033-038>040-044>046-053-054-170800- ...NORTHERN AND CENTRAL MISSOURI... CITY SKY/WX TMP DP RH WIND PRES REMARKS ST. JOSEPH NOT AVBL MOSBY PTCLDY 63 63 100 CALM 30.08S FOG WHITEMAN AFB PTCLDY 66 65 96 NE7 30.02F CLINTON CLOUDY 66 66 100 CALM 30.05S SEDALIA NOT AVBL CHILLICOTHE N/A 67 63 87 NE3 30.10S MOBERLY PTCLDY 63 61 94 CALM 30.09S FOG KIRKSVILLE NOT AVBL $$ MOZ041-047>049-056>058-063>065-088>090-097-170800- ...EASTERN AND SOUTHERN MISSOURI... CITY SKY/WX TMP DP RH WIND PRES REMARKS ST. LOUIS INTL PTCLDY 70 63 78 NE6 30.06S SPIRIT OF STL PTCLDY 63 63 100 CALM 30.04S FOG SIKESTON MOCLDY 68 68 100 CALM 30.01F FOG $$ IAZ060-094-KSZ022-034>040-054-083-096-NEZ052-066-093-170800- ...KANSAS...SOUTHEAST NEBRASKA AND IOWA... CITY SKY/WX TMP DP RH WIND PRES REMARKS TOPEKA NOT AVBL OMAHA CLEAR 64 62 93 NW6 30.13 $$